Cloud_Cover
92 100 100 100 99 100 100 100 100 72 84 50 85 55 5 6 7 5 23 15 20 5 5 4 17 19 16 20 0 0 0 0 3 3 5 2 2 0 0 0 0 0 0
100 100 100 100 100 100 99 99 90 97 98 6 46 14 88 95 92 63 20 5 5 2 0 0 0 26 25 51 0 5 16 26 6 1 5 5 15 10 5 5 4 1 0
100 100 100 100 100 100 100 100 100 100 6 8 76 100 78 63 6 29 6 2 0 0 0 0 0 0 0 0 0 0 0 2 5 5 5 44 20 5 5 5 5 0 5
100 100 100 100 100 100 100 100 5 30 94 100 100 80 47 27 7 4 0 0 0 0 0 0 0 0 0 0 0 0 0 5 5 5 5 14 5 5 5 5 5 5 5
100 100 100 100 100 100 74 5 48 100 86 100 90 53 12 0 0 0 0 0 0 0 0 0 0 0 0 0 0 0 0 5 5 5 5 15 26 53 30 5 5 5 2
100 100 100 100 100 30 3 58 86 79 26 18 19 4 0 0 0 0 0 0 0 0 0 0 0 0 0 0 0 0 0 5 5 5 5 5 25 98 51 5 5 5 12
78 40 10 4 4 20 25 17 50 5 5 3 5 5 5 0 0 0 0 0 0 0 0 0 0 0 0 0 0 0 0 0 3 5 5 5 5 5 5 22 24 77 18
100 90 66 54 5 5 5 5 5 4 5 5 75 60 5 2 4 0 2 2 0 0 0 0 0 0 0 2 0 0 3 4 4 4 5 5 5 5 5 28 54 98 100
56 80 27 5 5 5 5 5 51 83 86 52 42 15 6 4 0 0 4 2 0 0 0 0 0 0 0 0 0 0 3 0 0 0 4 5 5 5 39 87 99 89 59
17 5 5 38 5 5 5 27 46 100 97 86 80 5 5 1 1 1 0 5 5 1 0 0 0 0 0 0 0 3 0 0 0 3 4 5 5 5 52 45 100 96 100
79 99 63 50 6 74 81 94 100 100 100 98 5 3 0 5 5 5 5 5 0 0 1 0 0 0 0 0 5 0 0 0 1 5 25 5 6 33 69 100 100 100 100
85 51 80 81 82 62 70 71 33 72 94 61 3 5 5 4 5 5 3 1 1 0 3 0 0 0 0 5 4 5 28 77 88 59 4 3 5 5 5 6 55 55 74
85 100 100 100 80 98 100 93 70 60 75 5 5 5 5 5 5 0 1 3 5 5 4 1 3 4 5 2 0 0 0 0 0 0 0 0 5 5 5 5 5 28 100
100 100 100 99 98 100 100 100 88 95 33 5 5 5 5 5 4 5 5 5 5 31 69 16 15 0 0 0 0 0 0 0 0 0 3 5 5 5 5 49 48 94 100
100 100 88 99 100 100 100 99 100 62 6 8 6 5 5 5 5 5 3 0 5 5 5 27 5 4 0 0 0 0 0 0 0 0 2 5 5 5 5 76 100 100 100
100 100 97 100 100 100 78 39 79 69 87 99 95 92 38 5 5 5 0 0 4 5 5 5 5 2 0 0 0 0 0 0 0 0 2 5 5 5 21 73 61 61 83
100 100 99 100 99 60 94 65 70 100 100 94 100 98 3 5 32 4 5 14 52 5 5 5 4 2 0 0 0 0 0 0 0 0 4 5 5 22 30 5 5 5 5
100 100 100 34 44 96 87 100 89 100 100 100 52 71 42 5 5 59 100 96 5 5 5 5 5 5 2 4 0 0 0 0 0 0 0 5 6 5 5 15 35 58 80
100 100 100 100 100 89 97 100 100 100 76 59 100 98 63 19 100 100 98 15 5 5 5 5 5 5 5 5 0 0 0 0 0 0 0 5 5 5 5 5 5 5 5
99 100 100 100 100 100 100 100 100 100 97 98 99 96 97 100 100 99 21 5 52 5 5 5 5 5 4 2 0 0 0 0 3 5 16 22 5 5 5 5 5 5 5
100 100 100 100 98 100 100 100 99 100 100 100 100 100 100 100 100 47 69 81 5 5 5 5 5 5 1 0 0 3 5 5 5 8 94 100 7 5 5 5 5 5 5
100 100 100 93 98 98 100 100 100 74 100 100 100 100 100 100 67 97 30 99 5 5 5 5 5 5 0 0 3 5 79 88 18 5 97 46 30 5 5 5 3 5 5
100 100 100 100 100 100 100 99 100 95 100 100 100 100 99 59 8 100 90 53 5 5 5 5 5 5 5 0 5 62 98 99 64 6 97 66 5 5 5 5 0 5 5
100 100 100 100 100 100 100 100 100 100 97 100 100 100 49 9 5 93 92 88 11 56 5 11 5 5 4 0 6 96 100 100 80 43 97 64 38 57 5 5 4 2 5
100 100 100 100 100 100 100 96 86 96 100 100 100 79 11 4 5 100 99 99 29 97 14 89 5 5 1 3 6 89 100 100 84 22 14 93 94 69 58 18 94 54 5
100 100 100 100 100 96 13 93 100 100 100 100 67 60 5 22 100 100 98 100 96 99 100 70 5 3 3 5 5 59 99 100 100 98 40 94 99 100 65 72 100 99 100